QPF
0.00 0.00 0.00 0.00 0.00 0.00 0.00 0.00 0.00 0.00 0.00 0.00 0.00 0.00 0.00 0.00 0.00 0.00 0.00 0.00 0.00 0.00 0.00 0.00 0.00 0.00 0.00 0.00 0.00 0.00 0.00 0.00 0.00 0.00 0.00 0.00 0.00 0.00 0.00 0.00 0.00 0.00 0.00
0.00 0.00 0.00 0.00 0.00 0.00 0.00 0.00 0.00 0.00 0.00 0.00 0.00 0.00 0.00 0.00 0.00 0.00 0.00 0.00 0.00 0.00 0.00 0.00 0.00 0.00 0.00 0.00 0.00 0.00 0.00 0.00 0.00 0.00 0.00 0.00 0.00 0.00 0.00 0.00 0.00 0.00 0.00
0.00 0.00 0.00 0.00 0.00 0.00 0.00 0.00 0.00 0.00 0.00 0.00 0.00 0.00 0.00 0.00 0.00 0.00 0.00 0.00 0.00 0.00 0.00 0.00 0.00 0.00 0.00 0.00 0.00 0.00 0.00 0.00 0.00 0.00 0.00 0.00 0.00 0.00 0.00 0.00 0.00 0.00 0.00
0.00 0.00 0.00 0.00 0.00 0.00 0.00 0.00 0.00 0.00 0.00 0.00 0.00 0.00 0.00 0.00 0.00 0.00 0.00 0.00 0.00 0.00 0.00 0.00 0.00 0.00 0.00 0.00 0.00 0.00 0.00 0.00 0.00 0.00 0.00 0.00 0.00 0.00 0.00 0.00 0.00 0.00 0.00
0.00 0.00 0.00 0.00 0.00 0.00 0.00 0.00 0.00 0.00 0.00 0.00 0.00 0.00 0.00 0.00 0.00 0.00 0.00 0.00 0.00 0.00 0.00 0.00 0.00 0.00 0.00 0.00 0.00 0.00 0.00 0.00 0.00 0.00 0.00 0.00 0.00 0.00 0.00 0.00 0.00 0.00 0.00
0.00 0.00 0.00 0.00 0.00 0.00 0.00 0.00 0.00 0.00 0.00 0.00 0.00 0.00 0.00 0.00 0.00 0.00 0.00 0.00 0.00 0.00 0.00 0.00 0.00 0.00 0.00 0.00 0.00 0.00 0.00 0.00 0.00 0.00 0.00 0.00 0.00 0.00 0.00 0.00 0.00 0.00 0.00
0.00 0.00 0.00 0.00 0.00 0.00 0.00 0.00 0.00 0.00 0.00 0.00 0.00 0.00 0.00 0.00 0.00 0.00 0.00 0.00 0.00 0.00 0.00 0.00 0.00 0.00 0.00 0.00 0.00 0.00 0.00 0.00 0.00 0.00 0.00 0.00 0.00 0.00 0.00 0.00 0.00 0.00 0.00
0.00 0.00 0.00 0.00 0.00 0.00 0.00 0.00 0.00 0.00 0.00 0.00 0.00 0.00 0.00 0.00 0.00 0.00 0.00 0.00 0.00 0.00 0.00 0.00 0.00 0.00 0.00 0.00 0.00 0.00 0.00 0.00 0.00 0.00 0.00 0.00 0.00 0.00 0.00 0.00 0.00 0.00 0.00
0.00 0.00 0.00 0.00 0.00 0.00 0.00 0.00 0.00 0.00 0.00 0.00 0.00 0.00 0.00 0.00 0.00 0.00 0.00 0.00 0.00 0.00 0.00 0.00 0.00 0.00 0.00 0.00 0.00 0.00 0.00 0.00 0.00 0.00 0.00 0.00 0.00 0.00 0.00 0.00 0.00 0.00 0.00
0.00 0.00 0.00 0.00 0.00 0.00 0.00 0.00 0.00 0.00 0.00 0.00 0.00 0.00 0.00 0.00 0.00 0.00 0.00 0.00 0.00 0.00 0.00 0.00 0.00 0.00 0.00 0.00 0.00 0.00 0.00 0.00 0.00 0.00 0.00 0.00 0.00 0.00 0.00 0.00 0.00 0.00 0.00
0.00 0.00 0.00 0.00 0.00 0.00 0.00 0.00 0.00 0.00 0.00 0.00 0.00 0.00 0.00 0.00 0.00 0.00 0.00 0.00 0.00 0.00 0.00 0.00 0.00 0.00 0.00 0.00 0.00 0.00 0.00 0.00 0.00 0.00 0.00 0.00 0.00 0.00 0.00 0.00 0.00 0.00 0.00
0.00 0.00 0.00 0.00 0.00 0.00 0.00 0.00 0.00 0.00 0.00 0.00 0.00 0.00 0.00 0.00 0.00 0.00 0.00 0.00 0.00 0.00 0.00 0.00 0.00 0.00 0.00 0.00 0.00 0.00 0.00 0.00 0.00 0.00 0.00 0.00 0.00 0.00 0.00 0.00 0.00 0.00 0.00
0.00 0.00 0.00 0.00 0.00 0.00 0.00 0.00 0.00 0.00 0.00 0.00 0.00 0.00 0.00 0.00 0.00 0.00 0.00 0.00 0.00 0.00 0.00 0.00 0.00 0.00 0.00 0.00 0.00 0.00 0.00 0.00 0.00 0.00 0.00 0.00 0.00 0.00 0.00 0.00 0.00 0.00 0.00
0.00 0.00 0.00 0.00 0.00 0.00 0.00 0.00 0.00 0.00 0.00 0.00 0.00 0.00 0.00 0.00 0.00 0.00 0.00 0.00 0.00 0.00 0.00 0.00 0.00 0.00 0.00 0.00 0.00 0.00 0.00 0.00 0.00 0.00 0.00 0.00 0.00 0.00 0.00 0.00 0.00 0.00 0.00
0.00 0.00 0.00 0.00 0.00 0.00 0.00 0.00 0.00 0.00 0.00 0.00 0.00 0.00 0.00 0.00 0.00 0.00 0.00 0.00 0.00 0.00 0.00 0.00 0.00 0.00 0.00 0.00 0.00 0.00 0.00 0.00 0.00 0.00 0.00 0.00 0.00 0.00 0.00 0.00 0.00 0.00 0.00
0.00 0.00 0.00 0.00 0.00 0.00 0.00 0.00 0.00 0.00 0.00 0.00 0.00 0.00 0.00 0.00 0.00 0.00 0.00 0.00 0.00 0.00 0.00 0.00 0.00 0.00 0.00 0.00 0.00 0.00 0.00 0.00 0.00 0.00 0.00 0.00 0.00 0.00 0.00 0.00 0.00 0.00 0.00
0.00 0.00 0.00 0.00 0.00 0.00 0.00 0.00 0.00 0.00 0.00 0.00 0.00 0.00 0.00 0.00 0.00 0.00 0.00 0.00 0.01 0.00 0.00 0.00 0.00 0.00 0.00 0.00 0.00 0.00 0.00 0.00 0.00 0.00 0.00 0.00 0.00 0.00 0.00 0.00 0.00 0.00 0.00
0.00 0.00 0.00 0.00 0.00 0.00 0.00 0.00 0.00 0.00 0.00 0.00 0.00 0.00 0.00 0.00 0.00 0.00 0.00 0.00 0.00 0.00 0.00 0.00 0.00 0.00 0.00 0.00 0.00 0.00 0.00 0.00 0.00 0.00 0.00 0.00 0.00 0.00 0.00 0.00 0.00 0.00 0.00
0.00 0.00 0.00 0.00 0.00 0.00 0.00 0.00 0.00 0.00 0.00 0.00 0.00 0.00 0.00 0.00 0.00 0.00 0.00 0.00 0.00 0.00 0.00 0.00 0.00 0.00 0.00 0.00 0.00 0.00 0.00 0.00 0.00 0.00 0.00 0.00 0.00 0.00 0.00 0.00 0.00 0.00 0.00
0.00 0.00 0.00 0.00 0.00 0.00 0.00 0.00 0.00 0.00 0.00 0.00 0.00 0.00 0.00 0.00 0.00 0.00 0.00 0.00 0.00 0.00 0.00 0.00 0.00 0.00 0.00 0.00 0.00 0.00 0.00 0.00 0.00 0.00 0.00 0.00 0.00 0.00 0.00 0.00 0.00 0.00 0.00
0.00 0.00 0.00 0.00 0.00 0.00 0.00 0.00 0.00 0.00 0.00 0.00 0.00 0.00 0.00 0.00 0.00 0.00 0.00 0.00 0.00 0.00 0.00 0.00 0.00 0.00 0.00 0.00 0.00 0.00 0.00 0.00 0.00 0.00 0.00 0.00 0.00 0.00 0.00 0.00 0.00 0.00 0.00
0.00 0.00 0.00 0.00 0.00 0.00 0.00 0.00 0.00 0.00 0.00 0.00 0.00 0.00 0.00 0.00 0.00 0.00 0.00 0.00 0.00 0.00 0.00 0.00 0.00 0.00 0.00 0.00 0.00 0.00 0.00 0.00 0.00 0.00 0.00 0.00 0.00 0.00 0.00 0.00 0.00 0.00 0.00
0.00 0.00 0.00 0.00 0.00 0.00 0.00 0.00 0.00 0.00 0.00 0.00 0.00 0.00 0.00 0.00 0.00 0.00 0.00 0.00 0.00 0.00 0.00 0.00 0.00 0.00 0.00 0.00 0.00 0.00 0.00 0.00 0.00 0.00 0.00 0.00 0.00 0.00 0.00 0.00 0.00 0.00 0.00
0.00 0.00 0.00 0.00 0.00 0.00 0.00 0.00 0.00 0.00 0.00 0.00 0.00 0.00 0.00 0.00 0.00 0.00 0.00 0.00 0.00 0.00 0.00 0.00 0.00 0.00 0.00 0.00 0.00 0.00 0.00 0.00 0.00 0.00 0.00 0.00 0.00 0.00 0.00 0.00 0.00 0.00 0.00
0.00 0.00 0.00 0.00 0.00 0.00 0.00 0.00 0.00 0.00 0.00 0.00 0.00 0.00 0.00 0.00 0.00 0.00 0.00 0.00 0.00 0.00 0.00 0.00 0.00 0.00 0.00 0.00 0.00 0.00 0.00 0.00 0.00 0.00 0.00 0.00 0.00 0.00 0.00 0.00 0.00 0.00 0.00
0.00 0.00 0.00 0.00 0.00 0.00 0.00 0.00 0.00 0.00 0.00 0.00 0.00 0.00 0.00 0.00 0.00 0.00 0.00 0.00 0.00 0.00 0.00 0.00 0.00 0.00 0.00 0.00 0.00 0.00 0.00 0.00 0.00 0.00 0.00 0.00 0.00 0.00 0.00 0.00 0.00 0.00 0.00
MSLP
1017.29 1017.27 1017.09 1016.97 1016.85 1016.93 1016.95 1016.85 1016.82 1016.81 1016.72 1016.76 1016.73 1016.69 1016.82 1016.90 1016.99 1017.20 1017.25 1017.37 1017.42 1017.53 1017.71 1017.86 1018.03 1018.40 1018.62 1018.98 1019.28 1019.29 1019.43 1019.65 1019.44 1019.68 1020.31 1020.66 1021.27 1021.78 1022.29 1023.01 1023.43 1024.33 1025.41
1017.25 1017.34 1016.85 1016.71 1016.67 1016.68 1016.71 1016.53 1016.63 1016.51 1016.37 1016.19 1016.06 1016.13 1016.19 1016.28 1016.44 1016.61 1016.81 1016.89 1016.91 1016.96 1016.97 1017.23 1017.18 1017.36 1017.52 1017.91 1018.20 1018.42 1018.58 1018.58 1018.81 1019.14 1019.97 1020.56 1020.95 1021.44 1021.83 1022.45 1023.12 1023.95 1024.83
1017.80 1017.24 1016.83 1016.83 1016.80 1016.69 1016.54 1016.39 1016.26 1016.06 1015.88 1015.81 1015.84 1015.86 1015.83 1015.83 1015.94 1015.91 1015.96 1016.08 1016.22 1016.29 1016.37 1016.43 1016.49 1016.73 1016.69 1016.79 1017.06 1017.35 1017.49 1017.87 1018.34 1018.79 1019.65 1020.25 1020.76 1021.25 1021.77 1022.55 1022.98 1023.94 1024.56
1018.00 1017.76 1017.50 1017.27 1017.18 1016.87 1016.49 1016.27 1016.09 1015.87 1015.66 1015.43 1015.31 1015.19 1015.10 1015.21 1015.30 1015.31 1015.39 1015.36 1015.33 1015.51 1015.80 1015.87 1015.97 1016.12 1016.29 1016.27 1016.47 1016.63 1017.02 1017.43 1017.95 1018.39 1019.22 1019.83 1020.49 1021.15 1021.45 1022.19 1022.95 1023.64 1024.12
1018.39 1018.14 1017.86 1017.46 1017.22 1016.87 1016.45 1016.03 1015.74 1015.47 1015.12 1014.94 1014.76 1014.69 1014.60 1014.70 1014.67 1014.67 1014.80 1014.85 1015.00 1014.98 1014.98 1015.13 1015.44 1015.48 1015.52 1015.75 1016.11 1016.42 1016.74 1017.10 1017.54 1017.91 1018.58 1019.42 1019.97 1020.76 1021.27 1021.75 1022.40 1023.01 1023.65
1018.17 1017.99 1017.70 1017.32 1016.94 1016.57 1016.25 1015.86 1015.43 1015.09 1014.79 1014.65 1014.44 1014.40 1014.24 1014.12 1014.08 1014.29 1014.48 1014.60 1014.63 1014.66 1014.96 1014.87 1015.10 1015.37 1015.43 1015.44 1015.55 1015.76 1016.18 1016.47 1016.71 1017.09 1018.02 1018.60 1019.29 1020.11 1020.63 1021.25 1021.74 1022.63 1023.43
1018.31 1018.01 1017.80 1017.40 1017.11 1016.67 1016.33 1015.87 1015.47 1014.98 1014.60 1014.41 1014.27 1014.24 1014.08 1013.81 1013.71 1013.82 1014.08 1014.20 1014.37 1014.51 1014.71 1014.73 1014.97 1014.91 1015.10 1015.26 1015.30 1015.58 1015.85 1015.93 1016.29 1016.83 1017.32 1017.97 1018.55 1018.96 1019.75 1020.91 1021.34 1021.56 1022.57
1018.29 1017.93 1017.84 1017.67 1017.31 1016.83 1016.47 1016.09 1015.37 1014.92 1014.64 1014.49 1014.21 1014.05 1013.96 1013.71 1013.63 1013.50 1013.65 1013.82 1013.97 1014.11 1014.20 1014.33 1014.54 1014.70 1014.85 1015.14 1015.32 1015.45 1015.73 1015.99 1016.39 1016.81 1017.16 1017.58 1018.20 1019.01 1019.79 1019.89 1020.84 1021.63 1022.46
1018.56 1018.17 1017.86 1017.64 1017.13 1016.81 1016.46 1015.96 1015.41 1015.03 1014.77 1014.59 1014.15 1013.97 1013.95 1013.51 1013.44 1013.33 1013.44 1013.62 1013.86 1014.07 1014.05 1014.16 1014.20 1014.47 1014.65 1014.92 1015.10 1015.47 1015.78 1016.07 1016.64 1016.91 1017.35 1017.90 1018.52 1018.91 1019.44 1020.18 1021.17 1021.68 1022.40
1018.65 1018.21 1017.85 1017.61 1017.44 1017.00 1016.52 1016.15 1015.66 1015.14 1014.62 1014.24 1014.03 1013.95 1013.67 1013.33 1013.17 1013.17 1013.21 1013.56 1013.91 1014.06 1014.19 1014.28 1014.35 1014.44 1014.54 1014.95 1014.98 1015.34 1015.87 1016.45 1016.77 1017.41 1017.78 1018.21 1018.58 1019.04 1019.55 1020.13 1020.75 1021.42 1022.03
1018.81 1018.39 1017.99 1017.65 1017.40 1016.97 1016.48 1016.18 1015.91 1015.55 1014.87 1014.48 1014.20 1013.86 1013.96 1013.63 1012.92 1012.85 1013.21 1013.63 1013.91 1014.16 1014.50 1014.69 1014.49 1014.69 1014.49 1015.10 1015.40 1015.72 1016.07 1016.70 1017.31 1017.65 1018.17 1018.59 1019.13 1019.61 1019.92 1020.27 1020.64 1020.95 1021.71
1018.61 1018.24 1017.78 1017.30 1017.05 1016.71 1016.73 1016.22 1015.89 1015.58 1015.08 1014.86 1014.66 1014.28 1013.99 1013.75 1013.31 1012.85 1013.22 1013.51 1014.03 1014.23 1014.52 1014.71 1014.75 1014.81 1014.97 1015.41 1015.74 1016.21 1016.54 1017.18 1017.46 1018.32 1018.47 1019.22 1019.74 1020.09 1020.35 1020.62 1020.85 1021.14 1021.52
1018.31 1017.83 1017.50 1017.08 1016.97 1016.68 1016.71 1016.28 1015.79 1015.27 1015.11 1014.95 1014.87 1014.65 1014.42 1013.93 1013.65 1013.32 1013.32 1013.53 1014.12 1014.25 1014.50 1014.55 1014.79 1014.90 1015.25 1015.59 1015.76 1016.12 1016.72 1017.52 1017.96 1018.73 1019.08 1019.63 1020.08 1020.18 1020.57 1021.01 1021.46 1022.04 1022.48
1018.55 1018.05 1017.60 1017.15 1016.81 1016.67 1016.27 1016.25 1016.10 1015.54 1014.87 1014.47 1014.63 1014.72 1014.85 1014.48 1013.81 1013.51 1013.76 1014.04 1014.33 1014.39 1014.60 1014.81 1014.91 1015.22 1015.80 1016.29 1016.71 1016.60 1017.03 1017.72 1018.19 1018.78 1019.18 1019.57 1019.97 1020.18 1020.69 1021.30 1022.13 1022.65 1023.12
1018.26 1017.76 1017.29 1016.86 1016.48 1016.23 1015.93 1015.49 1015.35 1015.25 1014.95 1014.55 1014.41 1014.73 1014.93 1014.87 1014.10 1013.82 1014.21 1014.47 1014.87 1014.93 1015.16 1015.09 1015.54 1016.20 1016.60 1017.14 1017.45 1017.50 1017.78 1018.16 1018.57 1018.91 1019.19 1019.59 1020.15 1020.67 1021.23 1021.66 1022.16 1022.77 1023.28
1017.86 1017.34 1016.99 1016.63 1016.24 1016.02 1015.61 1015.05 1014.74 1014.57 1014.50 1014.19 1014.22 1014.48 1014.98 1014.85 1014.25 1014.33 1014.41 1014.59 1015.06 1015.57 1015.73 1016.07 1016.45 1017.09 1017.81 1018.08 1018.14 1018.28 1018.34 1018.75 1019.20 1019.39 1019.81 1020.19 1020.78 1021.28 1021.79 1022.28 1022.55 1023.10 1023.59
1017.97 1017.03 1016.45 1016.13 1015.84 1015.65 1015.34 1015.02 1014.79 1014.64 1014.39 1014.16 1014.13 1014.47 1014.94 1014.87 1014.72 1014.84 1014.87 1014.86 1015.42 1015.88 1016.75 1016.96 1017.73 1018.26 1018.75 1019.23 1019.47 1019.50 1019.86 1019.98 1019.83 1020.19 1020.73 1020.99 1021.22 1021.91 1022.31 1022.88 1023.20 1023.51 1023.99
1017.69 1016.85 1015.92 1015.29 1015.21 1015.25 1015.16 1015.17 1015.23 1015.14 1015.14 1015.14 1015.01 1014.94 1014.96 1015.08 1015.17 1015.32 1015.60 1015.63 1016.49 1017.15 1017.64 1018.58 1019.32 1019.65 1020.21 1020.49 1020.76 1020.91 1020.93 1020.73 1020.94 1021.25 1021.56 1021.83 1022.12 1022.38 1022.80 1023.27 1023.71 1024.10 1024.54
1017.07 1016.14 1015.24 1014.58 1014.53 1014.70 1014.88 1015.14 1015.54 1015.84 1015.93 1015.97 1015.94 1015.93 1016.28 1016.18 1016.49 1016.81 1016.84 1016.91 1017.71 1018.65 1019.29 1019.72 1020.69 1020.99 1021.23 1021.48 1021.90 1021.80 1021.69 1021.80 1022.07 1022.42 1022.80 1022.96 1022.96 1023.26 1023.75 1024.18 1024.51 1024.80 1025.13
1016.24 1015.26 1014.51 1013.96 1014.00 1014.37 1014.67 1015.10 1015.77 1016.41 1016.52 1016.47 1016.65 1017.19 1017.41 1017.50 1018.15 1018.71 1018.79 1018.99 1019.54 1020.33 1020.98 1021.23 1021.93 1021.99 1022.32 1022.29 1022.39 1022.39 1022.51 1022.75 1023.08 1023.33 1023.58 1023.72 1023.84 1023.93 1024.43 1024.87 1025.20 1025.47 1025.67
1015.47 1014.63 1013.81 1013.46 1013.47 1013.92 1014.39 1014.89 1015.71 1016.30 1016.51 1017.06 1017.54 1017.68 1017.99 1018.50 1019.47 1019.90 1020.31 1020.79 1021.20 1021.75 1022.25 1022.49 1022.71 1022.79 1022.80 1022.94 1022.95 1023.07 1023.19 1023.57 1023.75 1023.94 1024.17 1024.47 1024.54 1025.23 1025.08 1025.22 1025.76 1025.99 1026.29
1014.77 1014.07 1013.61 1013.23 1013.27 1013.79 1014.47 1014.99 1015.89 1016.11 1016.83 1017.73 1018.40 1018.68 1019.23 1019.75 1020.38 1020.82 1021.31 1021.80 1022.34 1022.84 1023.00 1022.91 1023.22 1023.47 1023.44 1023.50 1023.43 1023.68 1023.81 1024.04 1024.23 1024.26 1024.49 1024.89 1025.00 1025.30 1025.44 1025.61 1025.98 1026.26 1026.41
1014.27 1013.84 1013.69 1013.51 1013.53 1014.07 1014.70 1015.53 1015.94 1016.49 1017.48 1018.41 1019.19 1019.76 1020.34 1020.86 1021.42 1021.81 1022.07 1022.46 1022.67 1023.13 1023.35 1023.32 1023.44 1023.69 1023.59 1023.76 1023.89 1023.86 1024.30 1024.13 1024.19 1024.51 1024.87 1025.06 1025.28 1025.51 1025.69 1026.08 1026.33 1026.42 1026.41
1014.15 1013.95 1013.99 1013.98 1014.11 1014.59 1015.32 1015.77 1016.43 1017.04 1018.00 1018.98 1019.82 1020.55 1021.02 1021.58 1021.98 1022.42 1022.70 1022.92 1023.12 1023.61 1023.60 1023.54 1023.67 1023.68 1023.87 1024.03 1024.19 1024.23 1024.12 1023.99 1024.14 1024.37 1024.55 1025.01 1025.14 1025.45 1025.58 1025.99 1025.96 1026.07 1026.24
1014.45 1014.41 1014.48 1014.68 1014.94 1015.48 1015.67 1016.55 1017.20 1017.93 1018.75 1019.61 1020.60 1021.21 1021.55 1021.81 1022.41 1022.82 1023.24 1023.54 1023.66 1023.57 1023.67 1023.67 1023.69 1023.64 1023.74 1023.83 1023.89 1023.87 1023.72 1023.54 1023.86 1023.93 1024.24 1024.62 1025.32 1025.38 1025.44 1025.58 1025.70 1025.94 1025.97
1015.07 1015.12 1015.35 1015.49 1016.13 1016.11 1016.66 1017.37 1018.04 1018.64 1019.34 1020.10 1020.87 1021.45 1022.03 1022.34 1022.69 1023.09 1023.41 1023.57 1023.72 1023.80 1023.85 1023.78 1023.73 1023.75 1023.66 1023.56 1023.43 1023.29 1023.15 1023.04 1023.14 1023.17 1023.66 1024.15 1024.83 1025.06 1025.15 1025.15 1025.30 1025.47 1025.50
Thickness
5634 5632 5632 5631 5630 5628 5626 5624 5622 5620 5617 5613 5610 5607 5603 5598 5594 5588 5585 5579 5575 5570 5563 5558 5553 5545 5539 5533 5526 5521 5517 5511 5513 5508 5498 5492 5482 5473 5465 5454 5446 5433 5419
5621 5619 5621 5619 5618 5616 5614 5613 5610 5609 5607 5606 5604 5601 5597 5592 5586 5581 5576 5571 5567 5563 5559 5552 5549 5543 5537 5529 5522 5516 5511 5506 5502 5501 5485 5478 5472 5462 5455 5445 5434 5422 5409
5604 5609 5609 5607 5605 5604 5603 5602 5600 5599 5599 5596 5592 5588 5585 5582 5577 5573 5569 5564 5560 5556 5551 5547 5542 5535 5532 5526 5520 5513 5507 5499 5491 5482 5473 5466 5458 5449 5440 5428 5420 5407 5394
5589 5590 5591 5591 5589 5589 5590 5589 5588 5587 5586 5584 5582 5580 5577 5573 5568 5564 5559 5556 5554 5549 5542 5538 5532 5526 5520 5516 5510 5505 5497 5488 5480 5472 5461 5453 5444 5434 5426 5415 5403 5393 5382
5571 5571 5573 5574 5573 5574 5575 5576 5576 5576 5576 5575 5573 5570 5567 5562 5559 5554 5550 5546 5541 5538 5534 5528 5520 5515 5511 5504 5496 5490 5483 5476 5468 5461 5451 5440 5431 5420 5411 5401 5391 5379 5368
5555 5555 5556 5557 5558 5559 5559 5560 5561 5561 5561 5559 5558 5556 5554 5551 5548 5543 5538 5533 5528 5524 5519 5514 5508 5500 5494 5490 5484 5478 5469 5462 5457 5450 5438 5430 5419 5407 5397 5385 5376 5363 5354
5539 5540 5541 5542 5542 5542 5542 5543 5544 5546 5545 5543 5541 5538 5536 5534 5531 5527 5521 5515 5510 5505 5500 5496 5489 5484 5477 5471 5467 5461 5454 5450 5444 5435 5427 5417 5405 5396 5385 5371 5362 5356 5343
5524 5524 5521 5523 5524 5525 5525 5524 5527 5527 5526 5525 5523 5519 5516 5512 5510 5507 5502 5496 5490 5485 5481 5475 5470 5464 5458 5452 5446 5443 5437 5432 5426 5418 5410 5401 5391 5380 5368 5361 5348 5338 5325
5502 5503 5502 5499 5503 5501 5501 5502 5504 5504 5503 5501 5500 5497 5493 5493 5489 5486 5481 5474 5468 5463 5459 5454 5451 5445 5441 5434 5429 5423 5417 5411 5403 5398 5388 5379 5369 5360 5352 5343 5328 5321 5311
5482 5484 5481 5479 5478 5481 5480 5480 5479 5479 5482 5480 5480 5476 5474 5472 5469 5465 5461 5453 5447 5442 5437 5433 5429 5425 5420 5414 5410 5403 5395 5387 5382 5372 5365 5358 5350 5341 5333 5324 5316 5307 5299
5458 5459 5458 5457 5457 5457 5459 5457 5456 5455 5456 5455 5454 5452 5449 5447 5448 5447 5440 5432 5427 5421 5415 5410 5408 5405 5401 5393 5387 5381 5375 5366 5358 5352 5345 5339 5330 5323 5316 5309 5302 5296 5285
5438 5438 5438 5439 5437 5437 5433 5433 5432 5431 5431 5431 5428 5427 5423 5421 5422 5424 5417 5412 5404 5399 5394 5390 5386 5384 5379 5373 5367 5359 5355 5346 5342 5331 5328 5319 5312 5306 5300 5294 5287 5279 5271
5419 5419 5418 5418 5413 5411 5408 5408 5407 5405 5401 5401 5400 5399 5396 5396 5394 5396 5394 5389 5382 5378 5374 5372 5368 5365 5360 5355 5348 5345 5338 5329 5324 5314 5310 5303 5294 5290 5282 5275 5267 5257 5249
5391 5392 5394 5394 5391 5386 5386 5382 5381 5380 5384 5382 5377 5372 5366 5366 5369 5371 5367 5364 5361 5359 5356 5352 5349 5345 5337 5330 5326 5328 5323 5315 5309 5302 5296 5289 5281 5275 5268 5259 5246 5239 5230
5371 5370 5370 5368 5367 5366 5365 5364 5363 5360 5360 5359 5356 5350 5345 5343 5348 5351 5346 5343 5338 5337 5335 5335 5329 5321 5318 5311 5307 5306 5303 5297 5292 5286 5281 5274 5266 5258 5249 5241 5233 5223 5214
5356 5355 5353 5351 5348 5346 5348 5349 5349 5346 5343 5343 5339 5334 5326 5327 5332 5332 5330 5328 5323 5318 5316 5315 5312 5304 5295 5291 5290 5288 5285 5279 5272 5268 5263 5257 5249 5242 5232 5223 5215 5204 5195
5330 5336 5335 5333 5329 5327 5328 5329 5330 5327 5327 5326 5324 5319 5315 5316 5316 5315 5315 5316 5310 5304 5296 5297 5290 5284 5278 5271 5268 5267 5262 5259 5258 5252 5244 5239 5234 5224 5214 5203 5194 5186 5174
5307 5313 5319 5319 5314 5311 5311 5310 5308 5307 5305 5302 5304 5305 5305 5304 5303 5300 5298 5298 5289 5283 5280 5272 5265 5261 5255 5251 5246 5245 5243 5242 5238 5232 5225 5217 5209 5203 5194 5185 5174 5162 5151
5292 5299 5304 5306 5305 5301 5298 5294 5291 5287 5286 5284 5284 5285 5282 5285 5281 5276 5276 5276 5270 5262 5254 5251 5241 5238 5236 5232 5227 5227 5226 5223 5216 5208 5201 5194 5189 5181 5170 5160 5151 5139 5123
5278 5285 5291 5294 5293 5288 5284 5281 5275 5270 5269 5269 5269 5267 5264 5263 5254 5247 5249 5248 5242 5236 5232 5230 5223 5222 5217 5216 5213 5211 5208 5202 5195 5188 5181 5175 5168 5160 5149 5134 5122 5109 5095
5265 5273 5280 5282 5282 5278 5273 5269 5263 5260 5258 5254 5252 5252 5250 5243 5233 5230 5228 5224 5222 5218 5214 5212 5209 5207 5204 5201 5198 5194 5189 5183 5176 5170 5161 5151 5141 5131 5119 5110 5095 5083 5070
5253 5259 5263 5267 5267 5265 5260 5256 5250 5249 5244 5239 5233 5233 5228 5223 5218 5215 5211 5207 5202 5201 5202 5200 5195 5194 5192 5188 5184 5177 5170 5164 5157 5152 5143 5131 5121 5108 5097 5086 5073 5061 5051
5239 5243 5245 5247 5249 5248 5246 5241 5239 5235 5228 5221 5216 5213 5209 5205 5200 5198 5196 5193 5193 5190 5188 5186 5183 5180 5179 5174 5169 5163 5154 5149 5145 5136 5123 5110 5098 5086 5074 5063 5053 5044 5034
5224 5228 5229 5230 5232 5233 5230 5228 5223 5219 5213 5207 5201 5197 5194 5190 5187 5184 5182 5181 5179 5176 5175 5172 5169 5167 5163 5158 5151 5145 5140 5133 5125 5115 5104 5091 5080 5069 5059 5046 5039 5031 5022
5208 5212 5214 5215 5216 5215 5214 5210 5207 5203 5198 5193 5187 5182 5180 5179 5174 5171 5168 5167 5165 5163 5161 5159 5156 5153 5148 5142 5136 5130 5123 5114 5105 5095 5086 5075 5064 5054 5045 5036 5027 5017 5009
5192 5196 5197 5198 5196 5199 5197 5194 5191 5189 5185 5181 5175 5170 5166 5165 5163 5159 5157 5156 5153 5151 5148 5145 5141 5136 5131 5126 5119 5113 5106 5098 5089 5080 5071 5063 5053 5042 5034 5026 5017 5007 5001